Other Surface Observations
Issued by NWS Tucson, AZ

Home | Current Version | Previous Version | Text Only | Print | Product List | Glossary On
Versions: 1 2 3 4 5 6 7 8 9 10 11 12 13 14 15 16 17 18 19 20 21 22 23 24 25 26 27 28 29 30 31 32 33 34 35 36 37 38 39 40 41 42 43 44 45 46 47 48 49 50
934
SXUS55 KTWC 251715
OSOTWC

WEATHER ROUNDUP FOR SOUTHEAST ARIZONA
NATIONAL WEATHER SERVICE TUCSON AZ
1015 AM MST TUE APR 25 2017

AZZ504>506-514-251815-
LOCATION       SKY/WX    TMP DP  RH WIND       PRES   REMARKS
TUCSON         SUNNY     75  37  25 W13G20    29.79S
DAVIS-MONTHAN  MOSUNNY   74  37  26 W14G22    29.78S
CHILDRENS PARK N/A      N/A N/A  26 SW9               PIMA CO DEQ
ALVERNON/22ND  N/A       72 N/A N/A W10               PIMA CO DEQ
CHERRY/GLENN   N/A      N/A N/A N/A N/A               PIMA CO DEQ
TANGERINE      N/A       72 N/A N/A W12               PIMA CO DEQ
CONTL RANCH    N/A       74  39  28 SW10              PIMA CO DEQ
GRANT/1ST      N/A       72  33  24 SW10              PIMA CO DEQ
CRAYCROFT/22ND N/A       72  33  24 W11               PIMA CO DEQ
GOLFLINKS/KOLB N/A      N/A N/A N/A N/A               PIMA CO DEQ
AJO/12TH       N/A       73  36  26 SW12              PIMA CO DEQ
FAIRGROUNDS    N/A       70 N/A N/A W22               PIMA CO DEQ
SAGUARO        N/A       74  37  26 W8G17             *SABINO CYN
SAN CARLOS     N/A       70  43  37 W9G17             *SAN CARLOS
GREEN VALLEY   N/A       60  20  21 SW17              PIMA CO DEQ
HORSE CAMP CYN N/A       65  37  36 SW19G31           *ARAVAIPA CYN
RINCON MTNS    N/A       49  31  50 SW7G20            *NR MANNING CAMP
$$

AZZ509>511-251815-
LOCATION       SKY/WX    TMP DP  RH WIND       PRES   REMARKS
SAFFORD        MOSUNNY   75  34  22 NW24G38   29.70S
STRAY HORSE    N/A       48  28  46 N/A               *
TRAIL CABIN    N/A       58  31  36 NW14G24           *N OF GRANVILLE
BLACK HILLS    NOT AVBL
DRY LAKE       N/A       50  33  51 W8G17             *NATANES MTNS
NOON CREEK     N/A       66  30  26 W6G20             *PINALENO MTNS
COLUMBINE      N/A       42  26  52 SW10G18           *PINALENO MTNS
GUTHRIE        N/A       58  25  28 W11G22            *SW OF GUTHRIE
$$

AZZ502-503-513-251815-
LOCATION       SKY/WX    TMP DP  RH WIND       PRES   REMARKS
NOGALES        SUNNY     74  30  19 SW18G25   29.85R
SELLS          N/A       72  44  37 N10G17            *
SASABE         N/A       70  37  30 SW15G23           *ALTAR VLY
HOPKINS        N/A       59  28  31 W10G19            *SANTA RITA MTNS
CARR CYN       N/A       68  27  21 NW3G25            *W OF HEREFORD
$$

AZZ507-508-512-251815-
LOCATION       SKY/WX    TMP DP  RH WIND       PRES   REMARKS
SIERRA VISTA   SUNNY     71  26  18 SW24G35   29.85S
DOUGLAS        SUNNY     73  21  14 SW21G31   29.83R
EMPIRE MTNS    NOT AVBL
MULESHOE RANCH N/A       64  32  30 W17G37            *PRESERVE
HEADQUARTERS   N/A       63  22  21 W7G32             *CHIRICAHUA MTNS
$$

.............................NOTES.............................
THIS IS AN AUTOMATED COLLECTIVE WITH MINIMAL QUALITY CONTROL.
PIMA CO DEQ SITES HAVE NONSTANDARD WIND SENSOR HEIGHTS.
PIMA CO DEQ SITES DO NOT REPORT WIND GUSTS.
* INDICATES WIND SENSORS LOCATED AT 20 FEET INSTEAD OF 33 FEET.
..............................KEY..............................
SKY/WX - SKY CONDITION/WEATHER
TMP    - TEMPERATURE IN FAHRENHEIT
DP     - DEWPOINT IN FAHRENHEIT
RH     - RELATIVE HUMIDITY IN PERCENT
WIND   - DIRECTION AND SPEED IN MILES PER HOUR (MPH)
VRB    - VARIABLE WIND DIRECTION
PRES   - MEAN SEA LEVEL PRESSURE IN INCHES OF MERCURY
         F - FALLING PRESSURE   R - RISING PRESSURE
         S - STEADY PRESSURE
VSB    - VISIBILITY IN MILES
HX     - HEAT INDEX IN FAHRENHEIT
WCI    - WIND CHILL INDEX IN FAHRENHEIT
N/A    - NOT AVAILABLE
AFB    - AIR FORCE BASE
         DAVIS-MONTHAN IS DAVIS-MONTHAN AIR FORCE BASE
CYN    - CANYON
MTNS   - MOUNTAINS
NCA    - NATIONAL CONSERVATION AREA
NR     - NEAR
VLY    - VALLEY
CONTL  - CONTINENTAL
PIMA CO DEQ - PIMA COUNTY DEPT OF ENVIRONMENTAL QUALITY



USA.gov is the U.S. government's official web portal to all federal, state and local government web resources and services.